Total_Precipitation_Accumulation
0.48 0.81 1.09 0.98 1.00 1.05 0.88 0.88 0.94 0.93 0.79 0.90 0.98 0.95 1.04 1.02 0.98 0.83 0.72 0.64 0.64 0.62 0.64 0.59 0.53 0.55 0.55 0.51 0.51 0.57 0.71 0.86 1.00 1.11 1.22 1.46 1.61 1.72 1.72 1.71 1.75 1.66 1.47 1.55
0.68 0.77 0.63 0.63 0.70 0.79 0.82 0.86 0.89 0.84 0.69 0.79 0.87 0.90 0.95 0.90 0.82 0.67 0.60 0.55 0.51 0.49 0.53 0.51 0.42 0.40 0.42 0.43 0.45 0.51 0.65 0.87 1.09 1.30 1.46 1.63 1.93 2.09 2.09 2.15 2.07 2.00 1.88 1.90
0.63 0.58 0.47 0.55 0.64 0.73 0.75 0.75 0.78 0.76 0.78 0.79 0.81 0.96 0.99 0.94 0.79 0.61 0.50 0.45 0.42 0.37 0.41 0.42 0.38 0.33 0.30 0.32 0.38 0.46 0.56 0.77 1.06 1.36 1.59 1.77 1.99 2.23 2.32 2.22 2.18 2.20 2.26 2.29
0.57 0.47 0.45 0.52 0.55 0.63 0.84 0.54 0.51 0.56 0.72 0.93 0.79 1.10 0.98 0.90 0.80 0.64 0.55 0.48 0.43 0.40 0.39 0.36 0.34 0.35 0.30 0.32 0.37 0.46 0.57 0.70 0.91 1.17 1.48 1.72 1.96 2.27 2.33 2.29 2.27 2.31 2.39 2.45
0.54 0.48 0.48 0.55 0.48 0.51 0.65 0.41 0.44 0.56 0.60 0.67 0.61 0.86 0.91 0.74 0.80 0.71 0.63 0.55 0.47 0.43 0.41 0.36 0.35 0.35 0.37 0.38 0.42 0.54 0.65 0.76 0.92 1.16 1.47 1.78 1.96 2.13 2.31 2.31 2.20 2.13 2.20 2.19
0.50 0.43 0.43 0.44 0.37 0.39 0.46 0.47 0.50 0.55 0.61 0.74 0.49 0.65 0.83 0.74 0.70 0.68 0.62 0.58 0.49 0.40 0.42 0.43 0.46 0.46 0.45 0.50 0.58 0.71 0.80 0.96 1.08 1.16 1.27 1.43 1.64 1.92 2.04 2.12 2.15 2.17 2.17 2.03
0.49 0.40 0.30 0.28 0.40 0.41 0.44 0.66 0.91 0.91 0.89 0.78 0.39 0.55 0.71 0.60 0.51 0.54 0.55 0.55 0.52 0.49 0.52 0.59 0.66 0.62 0.59 0.63 0.76 0.86 0.94 0.99 1.04 1.00 1.01 1.12 1.29 1.53 1.65 1.73 1.92 2.00 2.05 2.00
0.50 0.44 0.29 0.24 0.30 0.44 0.45 0.58 0.92 1.01 0.87 0.71 0.57 0.74 0.74 0.53 0.44 0.47 0.49 0.48 0.48 0.55 0.63 0.78 0.88 0.88 0.82 0.84 0.88 0.88 0.92 0.87 0.87 0.89 0.91 0.96 1.02 1.17 1.29 1.35 1.51 1.64 1.65 1.63
0.47 0.41 0.22 0.19 0.18 0.28 0.41 0.37 0.38 0.58 0.59 0.67 0.65 0.76 0.71 0.48 0.41 0.45 0.50 0.50 0.52 0.65 0.77 0.95 1.11 1.15 1.06 0.99 0.94 0.94 0.98 0.92 0.84 0.87 0.94 0.96 0.97 0.98 1.00 1.06 1.06 1.13 1.22 1.23
0.38 0.40 0.25 0.18 0.18 0.21 0.28 0.31 0.39 0.65 0.88 0.92 0.77 0.82 0.87 0.65 0.51 0.52 0.60 0.70 0.78 0.92 0.98 1.12 1.24 1.25 1.20 1.22 1.18 1.02 0.98 1.01 0.93 1.01 1.02 0.94 0.90 0.86 0.86 0.90 0.95 0.95 1.02 1.11
0.33 0.42 0.31 0.22 0.24 0.25 0.25 0.31 0.46 0.69 0.78 1.06 1.21 1.18 0.85 0.68 0.65 0.66 0.73 0.98 1.05 1.13 1.20 1.21 1.29 1.28 1.18 1.16 1.12 1.10 1.05 1.02 1.04 1.05 1.07 0.95 0.91 0.90 0.87 0.86 0.89 0.97 1.03 1.13
0.38 0.50 0.41 0.24 0.22 0.26 0.37 0.49 0.65 1.02 1.01 0.93 1.25 1.36 0.90 0.74 0.76 0.78 0.79 0.83 0.90 1.10 1.19 1.18 1.24 1.20 1.07 1.04 0.93 0.97 1.04 1.05 1.12 1.13 1.05 0.97 1.01 1.01 1.02 0.98 0.92 0.95 0.99 0.99
0.50 0.67 0.68 0.51 0.49 0.46 0.49 0.58 0.72 0.92 1.11 1.12 1.24 1.29 0.94 0.71 0.70 0.76 0.83 0.81 0.86 0.97 0.98 0.92 0.94 1.01 0.98 0.96 0.89 0.97 1.04 1.10 1.10 1.14 1.14 1.03 0.94 0.95 0.98 0.97 0.89 0.85 0.88 0.91
0.48 0.64 0.76 0.75 0.66 0.59 0.54 0.48 0.55 0.81 1.11 1.12 1.16 1.09 0.83 0.71 0.69 0.71 0.76 0.80 0.79 0.76 0.76 0.69 0.66 0.71 0.74 0.78 0.85 0.92 1.04 1.19 1.22 1.21 1.16 1.10 1.03 1.04 0.96 0.87 0.83 0.82 0.78 0.73
0.42 0.42 0.37 0.31 0.29 0.34 0.40 0.42 0.51 0.65 0.83 1.06 0.95 0.74 0.63 0.62 0.58 0.60 0.66 0.59 0.55 0.54 0.54 0.55 0.53 0.53 0.55 0.59 0.67 0.75 0.87 1.07 1.19 1.28 1.26 1.17 1.09 1.00 0.91 0.82 0.73 0.73 0.64 0.62
0.45 0.38 0.23 0.18 0.18 0.23 0.33 0.45 0.59 0.66 0.72 0.74 0.65 0.61 0.47 0.45 0.40 0.41 0.47 0.47 0.48 0.43 0.38 0.39 0.42 0.43 0.48 0.52 0.59 0.60 0.71 0.88 1.00 1.08 1.11 1.17 1.13 0.96 0.85 0.75 0.66 0.64 0.62 0.61
0.32 0.32 0.28 0.20 0.16 0.27 0.48 0.57 0.64 0.64 0.59 0.51 0.48 0.43 0.31 0.28 0.25 0.24 0.30 0.35 0.41 0.40 0.34 0.32 0.32 0.36 0.43 0.51 0.55 0.59 0.70 0.82 0.86 0.91 0.94 0.99 0.99 0.84 0.77 0.66 0.59 0.57 0.57 0.58
0.30 0.34 0.41 0.30 0.25 0.48 0.68 0.55 0.50 0.55 0.45 0.31 0.28 0.27 0.25 0.20 0.17 0.15 0.16 0.19 0.21 0.24 0.25 0.30 0.28 0.28 0.32 0.39 0.50 0.64 0.68 0.68 0.69 0.75 0.77 0.77 0.79 0.74 0.67 0.57 0.54 0.54 0.56 0.59
0.31 0.41 0.50 0.45 0.42 0.53 0.61 0.41 0.39 0.47 0.45 0.25 0.19 0.18 0.15 0.13 0.11 0.10 0.10 0.12 0.13 0.13 0.16 0.20 0.20 0.20 0.22 0.24 0.28 0.34 0.39 0.43 0.45 0.54 0.62 0.66 0.68 0.65 0.60 0.54 0.60 0.64 0.61 0.60
0.43 0.51 0.56 0.53 0.60 0.67 0.47 0.20 0.20 0.34 0.52 0.22 0.13 0.11 0.10 0.10 0.12 0.11 0.11 0.12 0.11 0.09 0.08 0.12 0.15 0.14 0.14 0.16 0.17 0.20 0.24 0.28 0.31 0.37 0.45 0.52 0.59 0.61 0.63 0.73 0.80 0.80 0.76 0.67
0.35 0.43 0.53 0.59 0.78 0.73 0.43 0.19 0.21 0.40 0.55 0.28 0.13 0.10 0.11 0.11 0.11 0.09 0.11 0.11 0.10 0.08 0.07 0.08 0.11 0.12 0.13 0.14 0.14 0.16 0.19 0.19 0.22 0.23 0.29 0.40 0.56 0.64 0.71 0.83 0.86 0.83 0.76 0.65
0.37 0.48 0.60 0.73 0.94 0.96 0.49 0.28 0.34 0.32 0.21 0.17 0.11 0.09 0.10 0.09 0.09 0.09 0.09 0.08 0.08 0.09 0.07 0.08 0.09 0.09 0.12 0.14 0.12 0.13 0.20 0.20 0.24 0.25 0.26 0.34 0.45 0.58 0.72 0.81 0.79 0.78 0.79 0.71
0.32 0.56 0.79 0.79 0.80 0.63 0.38 0.27 0.22 0.16 0.15 0.09 0.07 0.07 0.08 0.08 0.08 0.09 0.09 0.08 0.08 0.08 0.07 0.09 0.09 0.10 0.10 0.11 0.13 0.13 0.16 0.20 0.23 0.25 0.21 0.23 0.32 0.46 0.64 0.72 0.73 0.74 0.76 0.73
0.18 0.27 0.41 0.39 0.28 0.22 0.19 0.17 0.12 0.09 0.09 0.06 0.04 0.04 0.07 0.10 0.09 0.08 0.08 0.08 0.08 0.08 0.07 0.07 0.09 0.09 0.10 0.11 0.13 0.16 0.19 0.20 0.20 0.22 0.22 0.21 0.21 0.27 0.36 0.44 0.50 0.58 0.63 0.63
0.18 0.22 0.31 0.31 0.18 0.13 0.13 0.13 0.10 0.08 0.07 0.05 0.04 0.03 0.05 0.08 0.09 0.06 0.08 0.07 0.08 0.08 0.08 0.08 0.09 0.11 0.10 0.12 0.12 0.15 0.19 0.21 0.21 0.22 0.24 0.24 0.25 0.28 0.29 0.32 0.35 0.39 0.43 0.51
0.12 0.19 0.27 0.29 0.20 0.14 0.11 0.11 0.11 0.10 0.08 0.07 0.05 0.04 0.06 0.08 0.08 0.06 0.06 0.06 0.07 0.08 0.09 0.09 0.11 0.12 0.12 0.12 0.14 0.14 0.15 0.17 0.19 0.20 0.21 0.20 0.21 0.24 0.25 0.27 0.29 0.32 0.32 0.39